AirNav   ATP
 
 1164 users online  

96G Cowley Field Airport
Sandusky, Michigan, USA

GOING TO SANDUSKY?


FAA INFORMATION EFFECTIVE 11 OCTOBER 2018

Location

FAA Identifier: 96G
Lat/Long: 43-22-32.6000N / 082-49-07.8000W
43-22.543333N / 082-49.130000W
43.3757222 / -82.8188333
(estimated)
Elevation: 770 ft. / 235 m (estimated)
Variation: 07W (1985)
From city: 3 miles S of SANDUSKY, MI
Time zone: UTC -4 (UTC -5 during Standard Time)
Zip code: 48471

Airport Operations

Airport use: Open to the public
Activation date: 04/1971
Control tower: no
ARTCC: CLEVELAND CENTER
FSS: LANSING FLIGHT SERVICE STATION
NOTAMs facility: LAN (NOTAM-D service available)
Attendance: IREG
SNOW REMOVAL IREG; VERIFY COND - CALL 810-648-2352.
Wind indicator: yes
Segmented circle: no

Airport Communications

CTAF: 122.9

Airport Services

Parking: tiedowns
Airframe service: NONE
Powerplant service: NONE
Bottled oxygen: NONE
Bulk oxygen: NONE

Runway Information

Runway 9/27

Dimensions: 2600 x 60 ft. / 792 x 18 m
Surface: turf, in good condition
Runway edge markings: RY MARKED WITH CONES.
RUNWAY 9  RUNWAY 27
Latitude: 43-22.536667N43-22.550000N
Longitude: 082-49.423333W082-48.836667W
Elevation: 770.0 ft.768.0 ft.
Traffic pattern: leftleft
Runway heading: 095 magnetic, 088 true275 magnetic, 268 true
Runway end identifier lights: nono
Obstructions: 53 ft. tree, 1089 ft. from runway, 20:1 slope to clear150 ft. pline, 5500 ft. from runway, 36:1 slope to clear

Airport Ownership and Management from official FAA records

Ownership: Privately-owned
Owner: DALE COWLEY
1515 SO SANDUSKY RD
SANDUSKY, MI 48471
Phone 810-648-2352
Manager: DALE COWLEY
1515 SO SANDUSKY RD
SANDUSKY, MI 48471
Phone 810-648-2352
AMGR LIVES AT ARPT.

Airport Operational Statistics

Aircraft based on the field: 1
Single engine airplanes: 1
    
Aircraft operations: 60/year *
83% transient general aviation
17% local general aviation
* for 12-month period ending 31 December 2015

Additional Remarks

DEER & TURKEYS ON & INVOF ARPT.
BE ALERT FOR CLOSE PROXIMITY OF POWER POLES ALONG TWY ON W END.

Instrument Procedures

There are no published instrument procedures at 96G.

Some nearby airports with instrument procedures:

77G - Marlette Airport (12 nm W)
KBAX - Huron County Memorial Airport (25 nm N)
D95 - Dupont-Lapeer Airport (27 nm SW)
KCFS - Tuscola Area Airport (28 nm W)
KPHN - St Clair County International Airport (31 nm SE)
 
Loc | Ops | Rwys | IFR | FBO | Links
Com | Nav | Svcs | Stats | Notes


 
Area around 96G (Cowley Field Airport)
 
Road maps at: MapQuest Bing Google
 
Aerial photo
WARNING: Photo may not be current or correct
Aerial photo of 96G (Cowley Field Airport)
Photo by Roy Carlson, Plainwell, MI

Do you have a better or more recent aerial photo of Cowley Field Airport that you would like to share? If so, please send us your photo.

 
Sectional chart

 
Airport distance calculator
Flying to Cowley Field Airport? Find the distance to fly.

From to 96G

Sunrise and sunset
Times for 15-Oct-2018
 Local
(UTC-4)
 Zulu
(UTC)
Morning civil twilight07:1711:17
Sunrise07:4611:46
Sunset18:4822:48
Evening civil twilight19:1723:17

Current date and time
Zulu (UTC)  15-Oct-2018 22:26:04
Local (UTC-4)  15-Oct-2018 18:26:04
 
METAR
KBAX 
25nm N 
152155Z AUTO 27015G30KT 10SM BKN060 06/M06 A3002 RMK AO2 T00571061
KD95 
27nm SW 
152155Z AUTO 29014G21KT 10SM SCT050 07/M04 A3006 RMK AO2 T00671041
KCFS 
28nm W 
152155Z AUTO 26013G23KT 10SM CLR 06/M06 A3005 RMK AO2 T00631056
KPHN 
31nm SE 
152155Z AUTO 27006G22KT 230V300 10SM SCT048 08/M03 A3004 RMK AO2
CYZR 
32nm SE 
152100Z AUTO 29015G26KT 9SM FEW044 09/M00 A2998 RMK SLP158
KP58 
38nm N 
152151Z AUTO 29012G23KT 07/M04 A2998 RMK AO1 PK WND 30034/2123 SLP157 T00671039
KMTC 
46nm S 
152156Z 28019G25KT 10SM FEW045 FEW220 08/M03 A3004 RMK AO2A PK WND 29028/38 30028/29 SLP179 T00841026
KHYX 
46nm W 
152155Z AUTO 27019G27KT 10SM CLR 06/M05 A3007 RMK AO2
KFNT 
48nm SW 
152153Z 30016G24KT 10SM CLR 06/M05 A3009 RMK AO2 PK WND 30029/2110 RAE49 SLP193 P0000 T00611050
KPTK 
50nm SW 
152153Z 27021KT 10SM FEW045 07/M03 A3005 RMK AO2 PK WND 28031/2129 SLP180 T00721028
TAF
CYZR 
32nm SE 
151941Z 1520/1602 28018G28KT P6SM BKN030 FM160000 28018G28KT P6SM SCT030 BECMG 1600/1602 29010G20KT RMK FCST BASED ON AUTO OBS. NXT FCST WILL BE ISSUED AT 160745Z
NOTAMs
Click for the latest NOTAMs
NOTAMs are issued by the DoD/FAA and will open in a separate window not controlled by AirNav.

 

 
 

Would you like to see your business listed on this page?

 If your business provides an interesting product or service to pilots, flight crews, aircraft, or users of the Cowley Field Airport, you should consider listing it here.  To start the listing process, click on the button below
 
Add a business
 

Other Pages about Cowley Field Airport

Page from the Michigan Airport Directory (PDF)
 
Update a link
 
Copyright © AirNav, LLC. All rights reserved. Privacy Policy  Contact